SIA519 WSSS-VOBL

Flight info

Callsign SIA519
Flight time 4h 14m
Altitude 38000
Route AROSO3A AROSO Y513 KALIL Y504 GUNIP N571 IDASO P761 MMV W117 XIVIL XIVIL7E
Aircraft B77W/H-SDE1E2E3FGHIJ2J3J4J5M1RWXY/LB1D1

Departure

Time 2026-05-04 16:35
Airport Singapore Changi Airport (WSSS)

Arrival

Time 2026-05-04 20:50
Airport Kempegowda International Airport Bengaluru (VOBL)
Time Latitude Longitude Altitude Speed Heading
2026-05-04 16:17 1.35180 103.99147 26 ft 0 kts 242°
2026-05-04 16:24 1.35201 103.99186 27 ft 2 kts 242°
2026-05-04 16:25 1.35215 103.99211 24 ft 2 kts 234°
2026-05-04 16:26 1.35267 103.99226 26 ft 2 kts 178°
2026-05-04 16:26 1.35284 103.99225 26 ft 2 kts 178°
2026-05-04 16:27 1.35259 103.99230 26 ft 2 kts 157°
2026-05-04 16:28 1.35250 103.99234 24 ft 0 kts 157°
2026-05-04 16:28 1.35234 103.99240 25 ft 2 kts 159°
2026-05-04 16:29 1.34982 103.99228 27 ft 21 kts 175°
2026-05-04 16:30 1.34879 103.99163 27 ft 13 kts 213°
2026-05-04 16:31 1.34735 103.99083 27 ft 21 kts 205°
2026-05-04 16:31 1.34212 103.98862 27 ft 34 kts 202°
2026-05-04 16:32 1.33481 103.98556 27 ft 24 kts 202°
2026-05-04 16:33 1.33199 103.98438 27 ft 23 kts 202°
2026-05-04 16:33 1.32946 103.98392 27 ft 17 kts 129°
2026-05-04 16:34 1.33061 103.98573 27 ft 22 kts 18°
2026-05-04 16:34 1.33218 103.98640 28 ft 27 kts 27°
2026-05-04 16:35 1.35107 103.99430 31 ft 200 kts 21°
2026-05-04 16:35 1.39054 104.01258 802 ft 213 kts 24°
2026-05-04 16:36 1.40344 104.01767 2186 ft 190 kts 25°
2026-05-04 16:36 1.43341 104.03148 2537 ft 279 kts 20°
2026-05-04 16:37 1.46983 104.04510 3346 ft 292 kts 22°
2026-05-04 16:37 1.48946 104.05250 4028 ft 308 kts 13°
2026-05-04 16:37 1.52970 104.04236 5274 ft 310 kts 323°
2026-05-04 16:38 1.56573 104.01739 6566 ft 323 kts 328°
2026-05-04 16:39 1.62475 103.98305 8432 ft 329 kts 331°
2026-05-04 16:39 1.66517 103.96103 9722 ft 332 kts 332°
2026-05-04 16:40 1.70625 103.93886 10911 ft 340 kts 332°
2026-05-04 16:40 1.74839 103.91600 12159 ft 347 kts 329°
2026-05-04 16:41 1.78150 103.88066 13470 ft 357 kts 307°
2026-05-04 16:41 1.82744 103.81984 15280 ft 372 kts 308°
2026-05-04 16:42 1.87544 103.75755 17149 ft 381 kts 308°
2026-05-04 16:43 1.90825 103.71508 18439 ft 389 kts 308°
2026-05-04 16:43 1.94143 103.67200 19603 ft 393 kts 308°
2026-05-04 16:43 1.95813 103.65030 20187 ft 394 kts 308°
2026-05-04 16:44 2.02444 103.56410 22646 ft 388 kts 308°
2026-05-04 16:45 2.05703 103.52172 23833 ft 380 kts 308°
2026-05-04 16:46 2.10410 103.46052 25350 ft 362 kts 308°
2026-05-04 16:46 2.13532 103.41995 25514 ft 378 kts 308°
2026-05-04 16:47 2.15786 103.37190 25447 ft 394 kts 286°
2026-05-04 16:47 2.17227 103.31977 26422 ft 380 kts 285°
2026-05-04 16:48 2.19375 103.24400 27070 ft 387 kts 287°
2026-05-04 16:48 2.20136 103.21785 27052 ft 395 kts 287°
2026-05-04 16:49 2.21676 103.16532 27746 ft 388 kts 287°
2026-05-04 16:49 2.23177 103.11420 28310 ft 387 kts 287°
2026-05-04 16:50 2.24728 103.06140 28237 ft 402 kts 287°
2026-05-04 16:50 2.26294 103.00802 28837 ft 397 kts 287°
2026-05-04 16:51 2.27842 102.95529 29352 ft 395 kts 287°
2026-05-04 16:51 2.28621 102.92870 29302 ft 402 kts 287°
2026-05-04 16:51 2.30219 102.87425 29428 ft 409 kts 287°
2026-05-04 16:52 2.31800 102.82027 30002 ft 404 kts 287°
2026-05-04 16:52 2.32589 102.79327 30170 ft 404 kts 287°
2026-05-04 16:53 2.34178 102.73884 30233 ft 412 kts 287°
2026-05-04 16:53 2.36593 102.65610 30665 ft 411 kts 287°
2026-05-04 16:54 2.37393 102.62866 30837 ft 410 kts 287°
2026-05-04 16:55 2.40616 102.51820 31103 ft 418 kts 287°
2026-05-04 16:55 2.42238 102.46255 31408 ft 416 kts 287°
2026-05-04 16:56 2.43862 102.40684 31535 ft 419 kts 287°
2026-05-04 16:56 2.46094 102.33222 31741 ft 421 kts 294°
2026-05-04 16:57 2.47452 102.30629 31710 ft 423 kts 307°
2026-05-04 16:57 2.51145 102.26007 31697 ft 426 kts 309°
2026-05-04 16:58 2.56433 102.19006 32339 ft 418 kts 307°
2026-05-04 16:58 2.58162 102.16658 32321 ft 421 kts 307°
2026-05-04 17:00 2.68646 102.02392 32824 ft 423 kts 307°
2026-05-04 17:01 2.77464 101.90409 33189 ft 426 kts 307°
2026-05-04 17:02 2.84519 101.80819 33304 ft 432 kts 307°
2026-05-04 17:02 2.88073 101.75988 33558 ft 429 kts 307°
2026-05-04 17:03 2.89844 101.73579 33623 ft 430 kts 307°
2026-05-04 17:03 2.95203 101.66293 33680 ft 435 kts 307°
2026-05-04 17:04 2.98779 101.61428 33897 ft 433 kts 307°
2026-05-04 17:04 3.02356 101.56563 33945 ft 436 kts 307°
2026-05-04 17:05 3.09578 101.46738 34172 ft 437 kts 307°
2026-05-04 17:06 3.14961 101.39412 34242 ft 440 kts 307°
2026-05-04 17:07 3.19796 101.32831 34376 ft 440 kts 307°
2026-05-04 17:07 3.22220 101.29531 34482 ft 439 kts 307°
2026-05-04 17:07 3.24027 101.27070 34536 ft 440 kts 307°
2026-05-04 17:08 3.29484 101.19637 34621 ft 442 kts 307°
2026-05-04 17:09 3.33098 101.14714 34747 ft 441 kts 307°
2026-05-04 17:09 3.36710 101.09732 34827 ft 442 kts 306°
2026-05-04 17:10 3.45564 100.97138 35041 ft 442 kts 306°
2026-05-04 17:11 3.49115 100.92104 35081 ft 443 kts 306°
2026-05-04 17:12 3.54444 100.84549 35188 ft 444 kts 306°
2026-05-04 17:12 3.58005 100.79499 35303 ft 443 kts 306°
2026-05-04 17:13 3.63412 100.71979 35358 ft 444 kts 307°
2026-05-04 17:14 3.68863 100.64532 35502 ft 443 kts 307°
2026-05-04 17:14 3.70677 100.62045 35521 ft 443 kts 307°
2026-05-04 17:15 3.76137 100.54546 35552 ft 444 kts 306°
2026-05-04 17:15 3.79772 100.49549 35667 ft 443 kts 306°
2026-05-04 17:16 3.83403 100.44556 35683 ft 444 kts 306°
2026-05-04 17:17 3.90670 100.34561 35766 ft 444 kts 307°
2026-05-04 17:18 3.97930 100.24574 35801 ft 445 kts 307°
2026-05-04 17:19 4.05222 100.14538 35914 ft 445 kts 307°
2026-05-04 17:20 4.12509 100.04507 35979 ft 445 kts 307°
2026-05-04 17:20 4.17949 99.97016 35983 ft 446 kts 307°
2026-05-04 17:21 4.25259 99.86945 36067 ft 446 kts 307°
2026-05-04 17:22 4.28907 99.81918 36050 ft 447 kts 307°
2026-05-04 17:23 4.36239 99.71811 36103 ft 447 kts 307°
2026-05-04 17:24 4.41733 99.64236 36075 ft 449 kts 307°
2026-05-04 17:25 4.49044 99.54148 36194 ft 447 kts 307°
2026-05-04 17:26 4.57115 99.44579 36113 ft 450 kts 313°
2026-05-04 17:26 4.63309 99.37566 36258 ft 447 kts 312°
2026-05-04 17:27 4.67420 99.32850 36167 ft 450 kts 312°
2026-05-04 17:28 4.75624 99.23401 36323 ft 447 kts 312°
2026-05-04 17:29 4.87897 99.09263 36408 ft 447 kts 312°
2026-05-04 17:30 4.94046 99.02179 36298 ft 450 kts 312°
2026-05-04 17:31 4.98132 98.97470 36382 ft 448 kts 312°
2026-05-04 17:32 5.08383 98.85651 36352 ft 450 kts 312°
2026-05-04 17:33 5.14529 98.78561 36483 ft 447 kts 312°
2026-05-04 17:33 5.16573 98.76203 36474 ft 448 kts 312°
2026-05-04 17:34 5.24771 98.66742 36481 ft 448 kts 312°
2026-05-04 17:35 5.34993 98.54940 36481 ft 449 kts 312°
2026-05-04 17:36 5.39085 98.50214 36569 ft 447 kts 312°
2026-05-04 17:36 5.43138 98.45530 36570 ft 448 kts 312°
2026-05-04 17:37 5.47230 98.40802 36511 ft 449 kts 312°
2026-05-04 17:37 5.51336 98.36056 36577 ft 448 kts 312°
2026-05-04 17:38 5.55413 98.31342 36621 ft 447 kts 312°
2026-05-04 17:38 5.59477 98.26644 36534 ft 449 kts 312°
2026-05-04 17:39 5.65616 98.19542 36660 ft 446 kts 312°
2026-05-04 17:39 5.69684 98.14836 36642 ft 447 kts 312°
2026-05-04 17:40 5.73772 98.10105 36565 ft 449 kts 312°
2026-05-04 17:40 5.77855 98.05378 36691 ft 446 kts 312°
2026-05-04 17:41 5.81915 98.00676 36703 ft 446 kts 312°
2026-05-04 17:41 5.85999 97.95947 36603 ft 449 kts 312°
2026-05-04 17:42 5.90078 97.91221 36693 ft 446 kts 312°
2026-05-04 17:42 5.94115 97.86543 36735 ft 445 kts 312°
2026-05-04 17:43 5.98186 97.81825 36642 ft 448 kts 312°
2026-05-04 17:43 6.02267 97.77092 36691 ft 447 kts 312°
2026-05-04 17:44 6.06329 97.72381 36771 ft 445 kts 312°
2026-05-04 17:44 6.10365 97.67698 36682 ft 448 kts 312°
2026-05-04 17:45 6.14446 97.62961 36682 ft 448 kts 312°
2026-05-04 17:45 6.18331 97.58112 36674 ft 447 kts 298°
2026-05-04 17:46 6.19221 97.56230 36430 ft 454 kts 289°
2026-05-04 17:46 6.20292 97.52075 36003 ft 463 kts 284°
2026-05-04 17:46 6.21630 97.46915 36416 ft 453 kts 287°
2026-05-04 17:47 6.22504 97.43877 36648 ft 447 kts 287°
2026-05-04 17:47 6.23389 97.40896 36822 ft 443 kts 288°
2026-05-04 17:47 6.25159 97.34982 36619 ft 449 kts 287°
2026-05-04 17:48 6.26061 97.31955 36446 ft 453 kts 287°
2026-05-04 17:48 6.26961 97.28915 36427 ft 454 kts 287°
2026-05-04 17:48 6.27856 97.25886 36564 ft 450 kts 287°
2026-05-04 17:48 6.28742 97.22877 36743 ft 446 kts 287°
2026-05-04 17:49 6.30498 97.16909 36719 ft 447 kts 287°
2026-05-04 17:49 6.31386 97.13895 36544 ft 452 kts 287°
2026-05-04 17:49 6.32279 97.10860 36453 ft 454 kts 287°
2026-05-04 17:50 6.34060 97.04801 36691 ft 448 kts 287°
2026-05-04 17:50 6.34941 97.01804 36809 ft 445 kts 288°
2026-05-04 17:50 6.35820 96.98815 36790 ft 446 kts 288°
2026-05-04 17:51 6.36703 96.95810 36661 ft 450 kts 288°
2026-05-04 17:51 6.37592 96.92786 36529 ft 453 kts 288°
2026-05-04 17:51 6.39377 96.86709 36626 ft 451 kts 288°
2026-05-04 17:52 6.40261 96.83695 36769 ft 447 kts 288°
2026-05-04 17:52 6.41139 96.80703 36820 ft 446 kts 288°
2026-05-04 17:52 6.42895 96.74724 36622 ft 452 kts 288°
2026-05-04 17:53 6.44679 96.68641 36603 ft 452 kts 288°
2026-05-04 17:53 6.45564 96.65621 36733 ft 449 kts 288°
2026-05-04 17:53 6.46443 96.62617 36833 ft 447 kts 288°
2026-05-04 17:54 6.48204 96.56608 36725 ft 450 kts 287°
2026-05-04 17:54 6.49091 96.53580 36622 ft 453 kts 287°
2026-05-04 17:54 6.49982 96.50538 36603 ft 453 kts 287°
2026-05-04 17:55 6.52307 96.44685 36680 ft 449 kts 298°
2026-05-04 17:55 6.55166 96.39150 36746 ft 447 kts 298°
2026-05-04 17:56 6.57998 96.33577 36747 ft 448 kts 297°
2026-05-04 17:56 6.60776 96.27948 36695 ft 450 kts 297°
2026-05-04 17:57 6.63531 96.22308 36751 ft 448 kts 297°
2026-05-04 17:57 6.66275 96.16689 36790 ft 448 kts 297°
2026-05-04 17:58 6.69031 96.11052 36726 ft 449 kts 297°
2026-05-04 17:58 6.71774 96.05438 36753 ft 449 kts 297°
2026-05-04 17:59 6.74524 95.99808 36818 ft 448 kts 297°
2026-05-04 18:00 6.78664 95.91360 36755 ft 449 kts 297°
2026-05-04 18:00 6.81431 95.85724 36810 ft 448 kts 297°
2026-05-04 18:01 6.84169 95.80142 36860 ft 447 kts 297°
2026-05-04 18:01 6.86926 95.74516 36823 ft 448 kts 297°
2026-05-04 18:02 6.91062 95.66071 36864 ft 447 kts 297°
2026-05-04 18:02 6.93809 95.60460 36883 ft 447 kts 297°
2026-05-04 18:03 6.96541 95.54877 36850 ft 448 kts 297°
2026-05-04 18:03 6.99293 95.49250 36880 ft 447 kts 297°
2026-05-04 18:04 7.02033 95.43647 36947 ft 446 kts 297°
2026-05-04 18:05 7.06149 95.35226 36877 ft 447 kts 297°
2026-05-04 18:05 7.08897 95.29601 36906 ft 447 kts 297°
2026-05-04 18:06 7.12986 95.21227 36938 ft 446 kts 297°
2026-05-04 18:06 7.15727 95.15611 36888 ft 447 kts 297°
2026-05-04 18:07 7.18474 95.09981 36923 ft 447 kts 297°
2026-05-04 18:07 7.21215 95.04362 36945 ft 446 kts 297°
2026-05-04 18:08 7.23938 94.98777 36934 ft 447 kts 297°
2026-05-04 18:08 7.26676 94.93159 36934 ft 447 kts 297°
2026-05-04 18:09 7.32148 94.81925 36955 ft 446 kts 297°
2026-05-04 18:10 7.34887 94.76298 36945 ft 447 kts 297°
2026-05-04 18:10 7.37616 94.70688 36973 ft 446 kts 297°
2026-05-04 18:11 7.40329 94.65112 36980 ft 446 kts 297°
2026-05-04 18:11 7.43063 94.59488 36956 ft 447 kts 297°
2026-05-04 18:12 7.45790 94.53875 36986 ft 446 kts 297°
2026-05-04 18:12 7.48516 94.48262 37041 ft 445 kts 297°
2026-05-04 18:13 7.51242 94.42650 37002 ft 446 kts 297°
2026-05-04 18:14 7.55119 94.34175 37024 ft 445 kts 295°
2026-05-04 18:14 7.57625 94.28474 37060 ft 444 kts 295°
2026-05-04 18:15 7.62685 94.17065 37036 ft 445 kts 295°
2026-05-04 18:16 7.65221 94.11371 37055 ft 445 kts 295°
2026-05-04 18:16 7.67741 94.05708 37018 ft 445 kts 295°
2026-05-04 18:17 7.71551 93.97143 37017 ft 446 kts 295°
2026-05-04 18:18 7.75351 93.88593 37041 ft 446 kts 295°
2026-05-04 18:18 7.77889 93.82878 36975 ft 447 kts 295°
2026-05-04 18:19 7.81695 93.74306 37047 ft 446 kts 295°
2026-05-04 18:19 7.84226 93.68601 37002 ft 447 kts 295°
2026-05-04 18:20 7.86751 93.62907 36976 ft 447 kts 295°
2026-05-04 18:20 7.89285 93.57188 37034 ft 446 kts 295°
2026-05-04 18:21 7.91819 93.51469 37015 ft 447 kts 295°
2026-05-04 18:21 7.94371 93.45738 36985 ft 448 kts 295°
2026-05-04 18:22 7.96939 93.40013 37037 ft 447 kts 295°
2026-05-04 18:22 7.99510 93.34281 37052 ft 447 kts 295°
2026-05-04 18:23 8.02058 93.28588 37047 ft 447 kts 295°
2026-05-04 18:23 8.04616 93.22868 37067 ft 447 kts 295°
2026-05-04 18:24 8.07169 93.17155 37102 ft 446 kts 295°
2026-05-04 18:24 8.09719 93.11445 37080 ft 447 kts 295°
2026-05-04 18:25 8.12276 93.05718 37096 ft 446 kts 295°
2026-05-04 18:25 8.14821 93.00016 37144 ft 445 kts 295°
2026-05-04 18:26 8.17349 92.94350 37119 ft 446 kts 295°
2026-05-04 18:26 8.19900 92.88629 37121 ft 446 kts 295°
2026-05-04 18:27 8.22443 92.82924 37163 ft 445 kts 295°
2026-05-04 18:27 8.24980 92.77230 37156 ft 445 kts 295°
2026-05-04 18:28 8.27509 92.71550 37134 ft 446 kts 295°
2026-05-04 18:28 8.30050 92.65842 37190 ft 444 kts 295°
2026-05-04 18:29 8.32582 92.60150 37190 ft 444 kts 295°
2026-05-04 18:29 8.35115 92.54454 37142 ft 445 kts 295°
2026-05-04 18:30 8.38915 92.45892 37206 ft 444 kts 295°
2026-05-04 18:31 8.41444 92.40197 37197 ft 445 kts 295°
2026-05-04 18:31 8.43979 92.34491 37186 ft 445 kts 295°
2026-05-04 18:32 8.46508 92.28795 37218 ft 444 kts 295°
2026-05-04 18:32 8.49021 92.23129 37228 ft 444 kts 295°
2026-05-04 18:33 8.51548 92.17430 37209 ft 444 kts 295°
2026-05-04 18:33 8.54073 92.11733 37217 ft 444 kts 295°
2026-05-04 18:34 8.56597 92.06035 37230 ft 444 kts 295°
2026-05-04 18:34 8.58693 92.01301 37237 ft 444 kts 295°
2026-05-04 18:35 8.61269 91.95632 37236 ft 443 kts 296°
2026-05-04 18:35 8.63938 91.90014 37249 ft 443 kts 296°
2026-05-04 18:36 8.66611 91.84400 37247 ft 443 kts 296°
2026-05-04 18:36 8.69253 91.78816 37255 ft 443 kts 296°
2026-05-04 18:37 8.71904 91.73191 37262 ft 443 kts 296°
2026-05-04 18:37 8.74549 91.67571 37257 ft 443 kts 296°
2026-05-04 18:38 8.77196 91.61946 37289 ft 442 kts 296°
2026-05-04 18:38 8.79840 91.56325 37302 ft 442 kts 296°
2026-05-04 18:39 8.82484 91.50702 37282 ft 443 kts 296°
2026-05-04 18:39 8.85109 91.45118 37305 ft 442 kts 296°
2026-05-04 18:40 8.87746 91.39503 37323 ft 442 kts 296°
2026-05-04 18:40 8.90384 91.33884 37334 ft 442 kts 296°
2026-05-04 18:41 8.93015 91.28280 37348 ft 441 kts 296°
2026-05-04 18:41 8.95645 91.22674 37359 ft 441 kts 296°
2026-05-04 18:42 8.98273 91.17070 37363 ft 441 kts 296°
2026-05-04 18:42 9.00893 91.11479 37419 ft 439 kts 296°
2026-05-04 18:43 9.03509 91.05895 37459 ft 438 kts 296°
2026-05-04 18:43 9.06105 91.00351 37398 ft 439 kts 296°
2026-05-04 18:44 9.08724 90.94754 37420 ft 438 kts 296°
2026-05-04 18:44 9.11331 90.89183 37472 ft 437 kts 296°
2026-05-04 18:45 9.13936 90.83611 37411 ft 438 kts 296°
2026-05-04 18:45 9.16543 90.78032 37415 ft 438 kts 296°
2026-05-04 18:46 9.19127 90.72500 37431 ft 437 kts 296°
2026-05-04 18:46 9.21730 90.66925 37415 ft 438 kts 296°
2026-05-04 18:47 9.24328 90.61358 37420 ft 437 kts 296°
2026-05-04 18:47 9.26927 90.55789 37459 ft 437 kts 296°
2026-05-04 18:48 9.29519 90.50228 37458 ft 437 kts 296°
2026-05-04 18:48 9.32116 90.44657 37408 ft 437 kts 296°
2026-05-04 18:49 9.34709 90.39088 37439 ft 436 kts 296°
2026-05-04 18:49 9.37279 90.33568 37430 ft 437 kts 296°
2026-05-04 18:50 9.39874 90.27993 37367 ft 438 kts 295°
2026-05-04 18:50 9.42474 90.22403 37394 ft 438 kts 295°
2026-05-04 18:51 9.45057 90.16848 37403 ft 437 kts 295°
2026-05-04 18:51 9.47651 90.11265 37332 ft 439 kts 295°
2026-05-04 18:52 9.50253 90.05663 37361 ft 438 kts 295°
2026-05-04 18:52 9.52841 90.00087 37398 ft 437 kts 295°
2026-05-04 18:53 9.55438 89.94490 37326 ft 439 kts 295°
2026-05-04 18:53 9.58039 89.88882 37330 ft 439 kts 295°
2026-05-04 18:54 9.60614 89.83326 37364 ft 438 kts 295°
2026-05-04 18:54 9.63212 89.77718 37289 ft 441 kts 295°
2026-05-04 18:55 9.65819 89.72087 37278 ft 441 kts 295°
2026-05-04 18:55 9.69721 89.63656 37334 ft 440 kts 295°
2026-05-04 18:56 9.72325 89.58025 37291 ft 441 kts 295°
2026-05-04 18:56 9.74913 89.52426 37318 ft 441 kts 295°
2026-05-04 18:57 9.77527 89.46768 37355 ft 440 kts 295°
2026-05-04 18:57 9.80110 89.41175 37307 ft 442 kts 295°
2026-05-04 18:58 9.82714 89.35533 37322 ft 441 kts 295°
2026-05-04 18:58 9.85313 89.29898 37367 ft 440 kts 295°
2026-05-04 18:59 9.87911 89.24263 37345 ft 441 kts 295°
2026-05-04 18:59 9.90496 89.18653 37330 ft 441 kts 295°
2026-05-04 19:00 9.93097 89.13007 37352 ft 441 kts 295°
2026-05-04 19:00 9.95694 89.07364 37382 ft 441 kts 295°
2026-05-04 19:01 9.98289 89.01724 37361 ft 441 kts 295°
2026-05-04 19:01 10.00886 88.96076 37384 ft 441 kts 295°
2026-05-04 19:02 10.03464 88.90467 37397 ft 441 kts 295°
2026-05-04 19:02 10.06054 88.84829 37391 ft 441 kts 295°
2026-05-04 19:03 10.08649 88.79176 37357 ft 442 kts 295°
2026-05-04 19:03 10.11241 88.73527 37379 ft 442 kts 295°
2026-05-04 19:04 10.13833 88.67875 37394 ft 441 kts 295°
2026-05-04 19:04 10.16419 88.62232 37384 ft 442 kts 295°
2026-05-04 19:05 10.19013 88.56568 37400 ft 441 kts 295°
2026-05-04 19:05 10.21608 88.50965 37418 ft 441 kts 296°
2026-05-04 19:06 10.24406 88.45416 37396 ft 442 kts 297°
2026-05-04 19:06 10.27243 88.39900 37455 ft 440 kts 297°
2026-05-04 19:07 10.30060 88.34374 37455 ft 441 kts 297°
2026-05-04 19:07 10.32862 88.28835 37420 ft 441 kts 297°
2026-05-04 19:08 10.35662 88.23284 37455 ft 441 kts 296°
2026-05-04 19:08 10.38453 88.17745 37481 ft 440 kts 296°
2026-05-04 19:09 10.41243 88.12205 37461 ft 441 kts 296°
2026-05-04 19:09 10.44034 88.06663 37479 ft 440 kts 296°
2026-05-04 19:10 10.46803 88.01161 37504 ft 440 kts 296°
2026-05-04 19:10 10.49603 87.95595 37510 ft 440 kts 296°
2026-05-04 19:11 10.52366 87.90099 37516 ft 439 kts 296°
2026-05-04 19:11 10.55146 87.84567 37569 ft 438 kts 296°
2026-05-04 19:12 10.59307 87.76282 37513 ft 440 kts 296°
2026-05-04 19:13 10.62087 87.70742 37508 ft 440 kts 296°
2026-05-04 19:13 10.64865 87.65202 37557 ft 439 kts 296°
2026-05-04 19:14 10.67638 87.59671 37556 ft 439 kts 296°
2026-05-04 19:14 10.70397 87.54164 37541 ft 440 kts 296°
2026-05-04 19:15 10.73176 87.48616 37555 ft 440 kts 296°
2026-05-04 19:15 10.75948 87.43076 37548 ft 440 kts 296°
2026-05-04 19:16 10.78725 87.37526 37571 ft 439 kts 296°
2026-05-04 19:16 10.81497 87.31981 37574 ft 439 kts 296°
2026-05-04 19:17 10.84267 87.26438 37571 ft 440 kts 296°
2026-05-04 19:17 10.87035 87.20895 37597 ft 439 kts 295°
2026-05-04 19:18 10.89797 87.15363 37608 ft 439 kts 295°
2026-05-04 19:18 10.92559 87.09825 37600 ft 439 kts 295°
2026-05-04 19:19 10.95307 87.04313 37569 ft 440 kts 295°
2026-05-04 19:19 10.98072 86.98766 37604 ft 439 kts 295°
2026-05-04 19:20 11.00835 86.93218 37602 ft 439 kts 295°
2026-05-04 19:20 11.03608 86.87647 37506 ft 441 kts 295°
2026-05-04 19:21 11.06382 86.82071 37544 ft 441 kts 295°
2026-05-04 19:21 11.09128 86.76551 37597 ft 440 kts 295°
2026-05-04 19:22 11.11898 86.70975 37508 ft 442 kts 295°
2026-05-04 19:22 11.14675 86.65384 37503 ft 442 kts 295°
2026-05-04 19:23 11.17446 86.59802 37582 ft 441 kts 295°
2026-05-04 19:23 11.20212 86.54228 37540 ft 442 kts 295°
2026-05-04 19:24 11.22990 86.48624 37506 ft 443 kts 295°
2026-05-04 19:24 11.25762 86.43031 37603 ft 441 kts 295°
2026-05-04 19:25 11.28531 86.37439 37580 ft 442 kts 295°
2026-05-04 19:25 11.31285 86.31876 37520 ft 443 kts 295°
2026-05-04 19:26 11.34058 86.26270 37576 ft 442 kts 295°
2026-05-04 19:26 11.36374 86.21587 37618 ft 442 kts 295°
2026-05-04 19:27 11.39142 86.15985 37559 ft 443 kts 295°
2026-05-04 19:27 11.41913 86.10376 37574 ft 443 kts 295°
2026-05-04 19:28 11.44663 86.04805 37622 ft 442 kts 295°
2026-05-04 19:28 11.47427 85.99200 37598 ft 443 kts 295°
2026-05-04 19:29 11.50198 85.93580 37568 ft 444 kts 295°
2026-05-04 19:29 11.52970 85.87955 37604 ft 443 kts 295°
2026-05-04 19:30 11.55741 85.82329 37615 ft 443 kts 295°
2026-05-04 19:30 11.58507 85.76708 37585 ft 444 kts 295°
2026-05-04 19:31 11.61280 85.71071 37589 ft 444 kts 295°
2026-05-04 19:31 11.64038 85.65460 37637 ft 444 kts 295°
2026-05-04 19:32 11.66806 85.59827 37610 ft 445 kts 295°
2026-05-04 19:32 11.69580 85.54176 37592 ft 445 kts 295°
2026-05-04 19:33 11.72353 85.48526 37656 ft 444 kts 295°
2026-05-04 19:33 11.75113 85.42899 37690 ft 443 kts 295°
2026-05-04 19:34 11.77859 85.37296 37647 ft 444 kts 295°
2026-05-04 19:34 11.80627 85.31644 37653 ft 444 kts 295°
2026-05-04 19:35 11.83388 85.26005 37686 ft 444 kts 295°
2026-05-04 19:35 11.86149 85.20361 37671 ft 444 kts 295°
2026-05-04 19:36 11.88908 85.14718 37672 ft 444 kts 295°
2026-05-04 19:36 11.91654 85.09098 37695 ft 444 kts 295°
2026-05-04 19:37 11.94411 85.03453 37690 ft 444 kts 295°
2026-05-04 19:37 11.97166 84.97807 37699 ft 444 kts 295°
2026-05-04 19:38 11.99922 84.92158 37699 ft 444 kts 295°
2026-05-04 19:38 12.02677 84.86506 37692 ft 444 kts 295°
2026-05-04 19:39 12.05414 84.80887 37713 ft 444 kts 295°
2026-05-04 19:39 12.08164 84.75238 37693 ft 445 kts 295°
2026-05-04 19:40 12.10926 84.69562 37695 ft 445 kts 295°
2026-05-04 19:40 12.13678 84.63903 37726 ft 444 kts 295°
2026-05-04 19:41 12.16428 84.58244 37711 ft 445 kts 295°
2026-05-04 19:41 12.19176 84.52585 37715 ft 445 kts 295°
2026-05-04 19:42 12.21924 84.46921 37719 ft 445 kts 295°
2026-05-04 19:42 12.24672 84.41257 37752 ft 444 kts 295°
2026-05-04 19:43 12.27398 84.35633 37769 ft 444 kts 295°
2026-05-04 19:43 12.30138 84.29976 37771 ft 444 kts 295°
2026-05-04 19:44 12.32877 84.24318 37785 ft 444 kts 295°
2026-05-04 19:44 12.35616 84.18656 37803 ft 443 kts 295°
2026-05-04 19:45 12.38348 84.13007 37805 ft 443 kts 295°
2026-05-04 19:45 12.41066 84.07381 37801 ft 443 kts 295°
2026-05-04 19:46 12.43795 84.01729 37818 ft 443 kts 294°
2026-05-04 19:46 12.46521 83.96080 37813 ft 443 kts 294°
2026-05-04 19:47 12.49254 83.90412 37814 ft 443 kts 294°
2026-05-04 19:47 12.51977 83.84762 37845 ft 443 kts 294°
2026-05-04 19:48 12.54701 83.79105 37844 ft 443 kts 294°
2026-05-04 19:48 12.57425 83.73446 37842 ft 443 kts 294°
2026-05-04 19:49 12.60143 83.67795 37841 ft 443 kts 294°
2026-05-04 19:49 12.62863 83.62133 37839 ft 443 kts 294°
2026-05-04 19:50 12.65570 83.56463 37819 ft 442 kts 290°
2026-05-04 19:50 12.66512 83.53512 37672 ft 442 kts 278°
2026-05-04 19:50 12.66832 83.50387 37491 ft 442 kts 269°
2026-05-04 19:51 12.67193 83.44116 37682 ft 438 kts 273°
2026-05-04 19:51 12.67782 83.37915 37788 ft 437 kts 274°
2026-05-04 19:52 12.68428 83.31733 37820 ft 436 kts 274°
2026-05-04 19:52 12.69072 83.25544 37786 ft 437 kts 274°
2026-05-04 19:53 12.69706 83.19363 37842 ft 436 kts 274°
2026-05-04 19:53 12.70333 83.13184 37838 ft 436 kts 274°
2026-05-04 19:54 12.70956 83.07034 37838 ft 436 kts 274°
2026-05-04 19:54 12.71580 83.00848 37844 ft 437 kts 274°
2026-05-04 19:55 12.72203 82.94662 37832 ft 437 kts 274°
2026-05-04 19:55 12.72826 82.88463 37831 ft 437 kts 274°
2026-05-04 19:56 12.73448 82.82270 37833 ft 437 kts 274°
2026-05-04 19:56 12.74069 82.76065 37833 ft 438 kts 274°
2026-05-04 19:57 12.74688 82.69861 37838 ft 438 kts 274°
2026-05-04 19:57 12.75303 82.63684 37836 ft 439 kts 274°
2026-05-04 19:58 12.75922 82.57446 37833 ft 439 kts 274°
2026-05-04 19:58 12.76540 82.51210 37837 ft 440 kts 274°
2026-05-04 19:59 12.77157 82.44974 37835 ft 441 kts 274°
2026-05-04 19:59 12.77774 82.38721 37833 ft 442 kts 274°
2026-05-04 20:00 12.78391 82.32448 37834 ft 443 kts 274°
2026-05-04 20:00 12.79008 82.26156 37839 ft 444 kts 274°
2026-05-04 20:01 12.79621 82.19895 37839 ft 445 kts 274°
2026-05-04 20:01 12.80239 82.13570 37832 ft 446 kts 274°
2026-05-04 20:02 12.80856 82.07235 37837 ft 448 kts 274°
2026-05-04 20:02 12.81474 82.00872 37833 ft 449 kts 274°
2026-05-04 20:03 12.82089 81.94531 37841 ft 450 kts 274°
2026-05-04 20:03 12.82707 81.88133 37845 ft 452 kts 274°
2026-05-04 20:04 12.83327 81.81702 37841 ft 454 kts 274°
2026-05-04 20:04 12.83949 81.75240 37840 ft 456 kts 274°
2026-05-04 20:05 12.84570 81.68764 37839 ft 458 kts 273°
2026-05-04 20:05 12.85192 81.62259 37827 ft 460 kts 273°
2026-05-04 20:06 12.85817 81.55718 37824 ft 462 kts 273°
2026-05-04 20:06 12.86438 81.49186 37831 ft 464 kts 273°
2026-05-04 20:07 12.87065 81.42587 37834 ft 465 kts 273°
2026-05-04 20:07 12.87692 81.35962 37824 ft 467 kts 273°
2026-05-04 20:08 12.88319 81.29319 37835 ft 469 kts 273°
2026-05-04 20:08 12.88943 81.22698 37827 ft 470 kts 273°
2026-05-04 20:09 12.89570 81.16021 37832 ft 471 kts 273°
2026-05-04 20:09 12.90197 81.09319 37832 ft 472 kts 273°
2026-05-04 20:10 12.90825 81.02595 37827 ft 474 kts 273°
2026-05-04 20:10 12.91448 80.95907 37832 ft 474 kts 273°
2026-05-04 20:11 12.92073 80.89179 37832 ft 474 kts 273°
2026-05-04 20:11 12.92696 80.82447 37824 ft 473 kts 273°
2026-05-04 20:12 12.93316 80.75747 37830 ft 472 kts 273°
2026-05-04 20:12 12.93934 80.69036 37830 ft 472 kts 273°
2026-05-04 20:13 12.94544 80.62389 37821 ft 470 kts 273°
2026-05-04 20:13 12.95052 80.56838 37832 ft 471 kts 274°
2026-05-04 20:14 12.95663 80.50145 37836 ft 472 kts 274°
2026-05-04 20:14 12.96273 80.43448 37832 ft 472 kts 274°
2026-05-04 20:15 12.96881 80.36752 37832 ft 472 kts 274°
2026-05-04 20:15 12.97488 80.30054 37835 ft 472 kts 274°
2026-05-04 20:16 12.98094 80.23342 37841 ft 473 kts 274°
2026-05-04 20:16 12.98699 80.16624 37836 ft 474 kts 274°
2026-05-04 20:17 12.99949 80.09974 37842 ft 476 kts 283°
2026-05-04 20:17 13.01702 80.03459 37836 ft 477 kts 284°
2026-05-04 20:18 13.03438 79.96877 37842 ft 478 kts 283°
2026-05-04 20:18 13.05109 79.90265 37846 ft 478 kts 283°
2026-05-04 20:19 13.06746 79.83672 37850 ft 479 kts 283°
2026-05-04 20:19 13.08390 79.77036 37859 ft 480 kts 283°
2026-05-04 20:20 13.10037 79.70394 37858 ft 480 kts 283°
2026-05-04 20:20 13.11691 79.63718 37418 ft 487 kts 283°
2026-05-04 20:20 13.12525 79.60352 36794 ft 485 kts 283°
2026-05-04 20:21 13.13356 79.56998 36253 ft 482 kts 283°
2026-05-04 20:21 13.14179 79.53673 35721 ft 479 kts 283°
2026-05-04 20:21 13.15801 79.47114 34666 ft 474 kts 283°
2026-05-04 20:22 13.16611 79.43835 34157 ft 472 kts 284°
2026-05-04 20:22 13.17416 79.40573 33625 ft 470 kts 284°
2026-05-04 20:22 13.18219 79.37321 33055 ft 469 kts 284°
2026-05-04 20:22 13.19018 79.34081 32497 ft 467 kts 284°
2026-05-04 20:23 13.19814 79.30853 31944 ft 465 kts 283°
2026-05-04 20:23 13.20606 79.27637 31411 ft 464 kts 283°
2026-05-04 20:23 13.21393 79.24438 30888 ft 462 kts 283°
2026-05-04 20:23 13.22180 79.21239 30366 ft 461 kts 283°
2026-05-04 20:24 13.22964 79.18052 29845 ft 459 kts 283°
2026-05-04 20:24 13.23744 79.14876 29245 ft 458 kts 283°
2026-05-04 20:24 13.24520 79.11717 28663 ft 456 kts 283°
2026-05-04 20:24 13.25294 79.08565 28090 ft 454 kts 283°
2026-05-04 20:25 13.26064 79.05424 27529 ft 453 kts 283°
2026-05-04 20:25 13.26830 79.02299 26977 ft 451 kts 283°
2026-05-04 20:25 13.27586 78.99214 26443 ft 449 kts 283°
2026-05-04 20:25 13.28346 78.96112 25917 ft 448 kts 283°
2026-05-04 20:26 13.29104 78.93013 25396 ft 446 kts 282°
2026-05-04 20:26 13.29860 78.89927 24890 ft 445 kts 282°
2026-05-04 20:26 13.30615 78.86844 24385 ft 444 kts 282°
2026-05-04 20:26 13.31369 78.83770 23900 ft 443 kts 282°
2026-05-04 20:27 13.32119 78.80712 23385 ft 442 kts 282°
2026-05-04 20:27 13.32870 78.77651 22817 ft 440 kts 282°
2026-05-04 20:27 13.33616 78.74605 22232 ft 439 kts 282°
2026-05-04 20:27 13.34359 78.71572 21676 ft 438 kts 282°
2026-05-04 20:28 13.35101 78.68545 21125 ft 436 kts 283°
2026-05-04 20:28 13.35832 78.65562 20589 ft 434 kts 283°
2026-05-04 20:28 13.36568 78.62558 20055 ft 433 kts 283°
2026-05-04 20:28 13.37300 78.59570 19540 ft 431 kts 283°
2026-05-04 20:29 13.38031 78.56584 19019 ft 429 kts 283°
2026-05-04 20:29 13.38757 78.53617 18515 ft 428 kts 284°
2026-05-04 20:29 13.39481 78.50656 17975 ft 426 kts 284°
2026-05-04 20:29 13.40204 78.47701 17391 ft 425 kts 284°
2026-05-04 20:30 13.40921 78.44764 16828 ft 423 kts 284°
2026-05-04 20:30 13.41635 78.41833 16266 ft 422 kts 285°
2026-05-04 20:30 13.42339 78.38943 15724 ft 421 kts 285°
2026-05-04 20:30 13.43049 78.36026 15187 ft 420 kts 285°
2026-05-04 20:31 13.43758 78.33113 14654 ft 419 kts 285°
2026-05-04 20:31 13.44461 78.30219 14128 ft 417 kts 285°
2026-05-04 20:31 13.45163 78.27331 13596 ft 415 kts 285°
2026-05-04 20:31 13.45861 78.24455 13011 ft 413 kts 285°
2026-05-04 20:32 13.46555 78.21598 12462 ft 411 kts 285°
2026-05-04 20:32 13.47244 78.18754 11900 ft 409 kts 285°
2026-05-04 20:32 13.47929 78.15926 11356 ft 407 kts 285°
2026-05-04 20:32 13.48609 78.13116 10822 ft 405 kts 285°
2026-05-04 20:33 13.49283 78.10332 10525 ft 396 kts 285°
2026-05-04 20:33 13.49935 78.07626 10320 ft 385 kts 285°
2026-05-04 20:33 13.50577 78.04957 9821 ft 385 kts 285°
2026-05-04 20:33 13.51220 78.02287 9240 ft 384 kts 285°
2026-05-04 20:34 13.51861 77.99625 8682 ft 384 kts 285°
2026-05-04 20:34 13.52502 77.96966 8126 ft 383 kts 284°
2026-05-04 20:34 13.53135 77.94350 7597 ft 382 kts 284°
2026-05-04 20:34 13.53778 77.91697 7058 ft 382 kts 284°
2026-05-04 20:35 13.54421 77.89049 6532 ft 381 kts 283°
2026-05-04 20:35 13.55063 77.86409 6015 ft 380 kts 283°
2026-05-04 20:35 13.55699 77.83804 5806 ft 370 kts 282°
2026-05-04 20:35 13.56316 77.81292 5722 ft 356 kts 283°
2026-05-04 20:36 13.56920 77.78837 5246 ft 355 kts 282°
2026-05-04 20:36 13.57529 77.76364 4730 ft 356 kts 282°
2026-05-04 20:36 13.58132 77.73913 4531 ft 346 kts 282°
2026-05-04 20:36 13.58706 77.71598 4770 ft 321 kts 282°
2026-05-04 20:37 13.59237 77.69468 5079 ft 295 kts 282°
2026-05-04 20:37 13.59725 77.67524 5382 ft 266 kts 280°
2026-05-04 20:37 13.59725 77.65765 5578 ft 231 kts 250°
2026-05-04 20:37 13.58952 77.64442 5747 ft 213 kts 226°
2026-05-04 20:38 13.57865 77.63347 5872 ft 229 kts 223°
2026-05-04 20:38 13.56670 77.62194 6230 ft 235 kts 223°
2026-05-04 20:38 13.55491 77.61063 6603 ft 233 kts 223°
2026-05-04 20:38 13.54285 77.59916 6943 ft 240 kts 223°
2026-05-04 20:39 13.53043 77.58744 6910 ft 245 kts 223°
2026-05-04 20:39 13.51754 77.57533 6902 ft 253 kts 223°
2026-05-04 20:39 13.50452 77.56311 6864 ft 253 kts 223°
2026-05-04 20:39 13.49152 77.55091 6808 ft 252 kts 223°
2026-05-04 20:40 13.47854 77.53873 6789 ft 253 kts 223°
2026-05-04 20:40 13.46556 77.52657 6559 ft 252 kts 223°
2026-05-04 20:40 13.45264 77.51443 6260 ft 250 kts 223°
2026-05-04 20:40 13.43993 77.50247 5962 ft 246 kts 223°
2026-05-04 20:41 13.42741 77.49071 5724 ft 242 kts 223°
2026-05-04 20:41 13.41504 77.48011 5578 ft 226 kts 207°
2026-05-04 20:41 13.40040 77.47758 5352 ft 215 kts 167°
2026-05-04 20:41 13.38616 77.48279 5294 ft 217 kts 165°
2026-05-04 20:42 13.37149 77.48671 5457 ft 222 kts 174°
2026-05-04 20:42 13.35609 77.48806 5535 ft 220 kts 182°
2026-05-04 20:42 13.34095 77.48722 5550 ft 216 kts 188°
2026-05-04 20:42 13.32628 77.48497 5578 ft 210 kts 193°
2026-05-04 20:43 13.31201 77.48176 5582 ft 209 kts 196°
2026-05-04 20:43 13.29792 77.47782 5581 ft 209 kts 198°
2026-05-04 20:43 13.28408 77.47335 5576 ft 208 kts 200°
2026-05-04 20:43 13.27061 77.46863 5585 ft 207 kts 201°
2026-05-04 20:44 13.25710 77.46371 5588 ft 205 kts 202°
2026-05-04 20:44 13.24363 77.45872 5590 ft 206 kts 202°
2026-05-04 20:44 13.23025 77.45371 5586 ft 205 kts 202°
2026-05-04 20:44 13.21666 77.44940 5572 ft 206 kts 186°
2026-05-04 20:45 13.20269 77.45259 5590 ft 213 kts 149°
2026-05-04 20:45 13.19289 77.46421 5586 ft 224 kts 111°
2026-05-04 20:45 13.19086 77.48009 5622 ft 228 kts 91°
2026-05-04 20:45 13.19090 77.49661 5585 ft 232 kts 91°
2026-05-04 20:46 13.19094 77.51295 5596 ft 225 kts 91°
2026-05-04 20:46 13.19093 77.52873 5576 ft 217 kts 91°
2026-05-04 20:46 13.19090 77.54383 5576 ft 214 kts 91°
2026-05-04 20:46 13.19084 77.55907 5441 ft 216 kts 91°
2026-05-04 20:47 13.19073 77.57448 5163 ft 212 kts 92°
2026-05-04 20:47 13.19060 77.58932 4880 ft 203 kts 92°
2026-05-04 20:47 13.19048 77.60344 4623 ft 192 kts 93°
2026-05-04 20:47 13.19036 77.61674 4384 ft 180 kts 92°
2026-05-04 20:48 13.19026 77.62947 4160 ft 180 kts 94°
2026-05-04 20:48 13.19013 77.64249 3944 ft 184 kts 93°
2026-05-04 20:48 13.19002 77.65552 3704 ft 182 kts 92°
2026-05-04 20:48 13.18991 77.66826 3433 ft 172 kts 91°
2026-05-04 20:49 13.18983 77.68036 3197 ft 169 kts 92°
2026-05-04 20:49 13.18970 77.69266 3022 ft 173 kts 91°
2026-05-04 20:49 13.18949 77.70413 2941 ft 137 kts 93°
2026-05-04 20:49 13.19106 77.71121 2987 ft 71 kts 57°
2026-05-04 20:50 13.19125 77.71437 3008 ft 26 kts 87°
2026-05-04 20:50 13.19476 77.71501 2975 ft 771 kts 88°
2026-05-04 20:50 13.20526 77.71461 2951 ft 1 kts 271°
2026-05-04 20:50 13.20526 77.71437 2951 ft 5 kts 270°
2026-05-04 20:51 13.20525 77.71392 2952 ft 7 kts 268°
2026-05-04 20:51 13.20524 77.71334 2950 ft 9 kts 270°
2026-05-04 20:51 13.20524 77.71263 2955 ft 11 kts 270°
2026-05-04 20:51 13.20516 77.71216 2946 ft 11 kts 248°
2026-05-04 20:55 13.20498 77.71195 2942 ft 9 kts 213°
2026-05-04 20:55 13.20431 77.71181 2945 ft 11 kts 178°
2026-05-04 20:55 13.20343 77.71177 2951 ft 14 kts 187°
2026-05-04 20:55 13.20265 77.71123 2946 ft 15 kts 256°
2026-05-04 20:56 13.20262 77.71014 2961 ft 16 kts 270°
2026-05-04 20:56 13.20258 77.70897 2952 ft 17 kts 266°
2026-05-04 20:56 13.20266 77.70772 2966 ft 18 kts 281°
2026-05-04 20:56 13.20274 77.70715 2967 ft 1 kts 270°
2026-05-04 20:57 13.20279 77.70703 2968 ft 3 kts 298°
2026-05-04 20:57 13.20301 77.70691 2968 ft 5 kts 349°
2026-05-04 20:57 13.20330 77.70691 2968 ft 3 kts 359°
2026-05-04 20:57 13.20353 77.70690 2968 ft 0 kts 359°
2026-05-04 20:58 13.20354 77.70690 2968 ft 0 kts 359°